Погода Pisa

Погода Pisa : погода сейчас, прогноз погоды и архив. Всё, что Вы хотите узнать о погоде Pisa!

Поиск расширенной информации на нашем сайте:

Другие новости

Новости СМИ2

Главная страница сайта

Новости сайта

03.07.2017

Напоминаем, что на нашем специализированном сайте Метеоцентр.Азия вы можете получить высокодетализированные автоматические прогнозы погоды по пунктам России, СНГ и мира в авиационном формате (включающие направление и скорость ветра, видимость, явления погоды, количество и форму облачности, нижнюю и верхнюю границу облачности).


Погода Pisa - сегодня

Время (UTC), дата Ветер
(°,м/с) 
Видим.   Явления Облачность Т
(°С)
Тd
(°С)
f(%) Тe
(°С)
Pmin
(гПа)
dP
(гПа)
Po
(мм)
O2
(г/м3)
Тmin Tmax R s Состояние
почвы
03 21.09.18 110 (В) 15000 м    ясно 
+16.8 +16.8 100 +29  1015.8  -0.7  761  285           
06 21.09.18 100 (В) 15000 м    ясно 
+17.2 +17 99 +30  1015.8  -0.2  761  285          сухая 
09 21.09.18 130 (ЮВ) 20000 м    ясно 
+23.6 +16.7 65 +35  1016.1  0.4  762  279           
12 21.09.18 290 (З) 25000 м    ясно 
+29.4 +12.8 36 +34  1015.7  -0.4  761  275           
21 21.09.18 100 (В) 10 км    ясно 
+20.4 +19.9 97 +38  1016.2  762  281           
00 22.09.18 100 (В) 10 км    ясно 
+18 +17.7 98 +32  1016.3  0.1  762  284           
06 22.09.18 120 (ЮВ) 10 км    ясно 
+17 +16.7 98 +28  1016.8  0.4  762  285          влажная 
09 22.09.18 110 (В) 10 км    3/0 верхняя 
[Ci fib]
+24 +18.7 72 +39  1017.1  0.3  762  278           
12 22.09.18 240 (ЮЗ) 15000 м    5/3 750 м верхняя 
[Cu hum|Ci fib]
+27.4 +19 60 +43  1016.8  -0.3  762  275           
15 22.09.18 270 (З) 18000 м    4/0 верхняя 
[Ci fib]
+28 +17.2 52 +40  1016.5  -0.2  762  275           
18 22.09.18 230 (ЮЗ) 12000 м    3/0 верхняя 
[Ci fib]
+24 +22.3 90 +48  1016.8  0.3  762  276    +29.5       
21 22.09.18 нст () 10 км    4/0 верхняя 
[Ci fib]
+21.8 +21.3 97 +43  1018.6  1.8  763  279           
00 23.09.18 нст () 10 км    5/5 450 м 
[Cu med, cong]
+21 +20.3 96 +40  1018.7  0.1  764  281           
06 23.09.18 120 (ЮВ) 15000 м    4/4 900 м 
[Cu med, cong]
+17.8 +17.8 100 +32  1018.8  0.1  764  285          сухая 
12 23.09.18 270 (З) 20000 м    5/5 900 м 
[Cu hum]
+26.8 +20.2 67 +45  1019.7  764  276           
18 23.09.18 220 (ЮЗ) 10 км    5/5 900 м 
[Cu hum]
+23.8 +22.1 90 +47  1017.5  -0.3  763  277    +29.4       
00 24.09.18 180 (Ю) 10 км  {дождь}  9/9 600 м 
[Cu Sc]
+22.4 +20.7 90 +42  1014.5  -2.2  760  278      0.0     
06 24.09.18 090 (В) 15000 м    9/9 750 м 
[Cu Sc]
+21.4 +20.4 94 +41  1012.7  -0.5  759  279      0.0    сухая 
09 24.09.18 120 (ЮВ) 20000 м    6/6 1200 м 
[Cu hum]
+26 +20.1 70 +44  1014.7  761  275           
12 24.09.18 340 (С) 20000 м    4/4 1200 м 
[Cu hum]
+28 +18.7 57 +43  1015.1  0.4  761  274           
15 24.09.18 100 (В) 20000 м    5/5 900 м 
[Cu hum]
+26 +15.4 52 +35  1015.7  0.6  761  277           
18 24.09.18 100 (В) 10 км    3/3 1500 м 
[Cu hum]
+22 +7.8 40 +22  1017.9  2.2  763  283    +29.5       
00 25.09.18 070 (В) 10 км    ясно 
+20 +4.1 35 +20  1023.7  767  287           
06 25.09.18 060 (СВ) 5000 м    4/4 600 м 
[St]
+17 +4 42 +17  1026.9  2.2  770  291          сухая 
12 25.09.18 090 (В) 5000 м  дым  4/1 900 м верхняя 
[St|Ci fib]
+22.6 +4.2 30 +23  1027.7  -0.2  770  286           
Время (UTC), дата Ветер
(°,м/с) 
Видим.   Явления Облачность Т
(°С)
Тd
(°С)
f(%) Тe
(°С)
Pmin
(гПа)
dP
(гПа)
Po
(мм)
O2
(г/м3)
Тmin Tmax R s Состояние
почвы

Для получения пояснительной информации подведите курсор к названию столбца.

ПОГОДА Pisa - архив

Всё, что Вы хотите узнать о погоде Pisa - удобно и подробно!

Выберите нужную дату (начиная с 1 января 2015* года) и нажмите кнопку "Найти".
Будут отображены архивные сводки погоды по пункту Pisa, начиная с указанной даты.


Отображать данные в формате CSV (для использования в таблицах Excel)


Внимание! Наш архив погоды предназначен исключительно для личного некоммерческого использования в познавательных целях. Если Вам необходимы официальные справки о состоянии погоды (для производственных, юридических, коммерческих и т.п. целей), обращайтесь в органы Росгидромета.

*Примечание: данная дата относится к архиву по метеостанциям СССР (Россия, СНГ, Балтия).
Архив по метеостанциям Зарубежной Европы и Азии (кроме Китая) хранится 10 дней, по другим регионам земного шара (Китай, Африка, Америка, Австралия, Океания) - 1 день.

Pisa - район местоположения метеостанции


Название, широта, долгота, высота метеостанции:
Pisa (S. Giusto) 43.7°ш. 10.4°д. 6 м над ур. моря [Italy]

Дополнительная информация

В oтличие oт бoльшинства пoгoдных сайтoв мы публикуем пoдрoбную метеoинфoрмацию в детальнoм прoфессиoнальнoм фoрмате.

Характеристики температуры и влажнoсти вoздуха измеряются на высoте 2 м в тени вдали oт зданий и деревьев.
Скoрoсть ветра измеряется на высoте 10 м (на урoвне рoста челoвека скoрoсть ветра ниже в 1.5-2 раза). Если метеoстанция нахoдится в гoрoде или в лесу, тo скoрoсть ветра занижена на 2-4 м/с пo сравнению с oткрытым местoм. Скoрoсть ветра над акватoриями крупных рек и oзёр, а также на вершинах хoлмoв на 2-5 м/с выше, чем в oбычных услoвиях.
Атмoсфернoе давление в разных тoчках местнoсти мoжет значительнo oтличаться oт давления на метеoстанции, в зависимoсти oт услoвий рельефа (при пoдъёме на 10 м давление пoнижается примернo на 1 мм рт.ст.).